When you browse on this site, cookies collect data to enhance your experience and personalize the content and advertising you see.
Visit our Privacy Policy to learn more. By continuing to use the site, you agree to this use of cookies and data.
  • Em Portugal
  • Lista de países
  • Para 7 dias
  • Temperatura da água
  • Mapas de satélite
  • Mapa do tempo
  • Widgets de tempo
  • user-avatar
    Iniciar Sessão

    Previsão horária em Ordino

    Hoje, 24 Maio, Sexta-feira

    Tempo Temperatura Precipitação Vento Pressão Humidade
    00:00 +10°C° 0.7 mm 1 m/s 632 mmHg 95%
    01:00 +9°C° 2.4 mm 1 m/s 632 mmHg 96%
    02:00 +9°C° 2.4 mm 1 m/s 632 mmHg 97%
    03:00 +9°C° 2.4 mm 1 m/s 632 mmHg 97%
    04:00 +9°C° 3.2 mm 1 m/s 632 mmHg 97%
    05:00 +8°C° 3.2 mm 1 m/s 631 mmHg 97%
    06:00 +8°C° 3.2 mm 1 m/s 631 mmHg 96%
    07:00 +8°C° 2.1 mm 1 m/s 631 mmHg 96%
    08:00 +8°C° 2.1 mm 1 m/s 631 mmHg 96%
    09:00 +8°C° 2.1 mm 1 m/s 631 mmHg 96%
    10:00 +8°C° 1.5 mm 1 m/s 631 mmHg 95%
    11:00 +7°C° 1.5 mm 2 m/s 631 mmHg 94%
    12:00 +7°C° 1.5 mm 2 m/s 631 mmHg 94%
    13:00 +7°C° 0.6 mm 2 m/s 631 mmHg 92%
    14:00 +8°C° 0.6 mm 2 m/s 631 mmHg 90%
    15:00 +8°C° 0.6 mm 2 m/s 631 mmHg 88%
    16:00 +8°C° 0.4 mm 2 m/s 631 mmHg 89%
    17:00 +8°C° 0.4 mm 2 m/s 631 mmHg 90%
    18:00 +7°C° 0.4 mm 2 m/s 631 mmHg 91%
    19:00 +7°C° 1.1 mm 2 m/s 631 mmHg 93%
    20:00 +7°C° 1.1 mm 2 m/s 631 mmHg 94%
    21:00 +6°C° 1.1 mm 2 m/s 631 mmHg 96%
    22:00 +6°C° 1.4 mm 2 m/s 631 mmHg 96%
    23:00 +6°C° 1.4 mm 2 m/s 631 mmHg 96%

    Amanhã, 25 Maio, Sábado

    Tempo Temperatura Precipitação Vento Pressão Humidade
    00:00 +6°C° 1.4 mm 2 m/s 631 mmHg 96%
    01:00 +6°C° 1.7 mm 2 m/s 631 mmHg 96%
    02:00 +6°C° 1.7 mm 2 m/s 631 mmHg 97%
    03:00 +5°C° 1.7 mm 3 m/s 631 mmHg 97%
    04:00 +5°C° 1.6 mm 3 m/s 631 mmHg 96%
    05:00 +5°C° 1.6 mm 3 m/s 631 mmHg 96%
    06:00 +5°C° 1.6 mm 3 m/s 631 mmHg 95%
    07:00 +7°C° 1 mm 3 m/s 631 mmHg 94%
    08:00 +7°C° 1 mm 3 m/s 632 mmHg 93%
    09:00 +7°C° 1 mm 3 m/s 632 mmHg 91%
    10:00 +7°C° 0.7 mm 3 m/s 632 mmHg 90%
    11:00 +8°C° 0.7 mm 3 m/s 632 mmHg 89%
    12:00 +8°C° 0.7 mm 3 m/s 632 mmHg 87%
    13:00 +8°C° 0.3 mm 3 m/s 632 mmHg 87%
    14:00 +8°C° 0.3 mm 3 m/s 632 mmHg 86%
    15:00 +8°C° 0.3 mm 3 m/s 632 mmHg 85%
    16:00 +8°C° 0 mm 3 m/s 632 mmHg 86%
    17:00 +8°C° 0 mm 3 m/s 632 mmHg 87%
    18:00 +8°C° 0 mm 3 m/s 632 mmHg 88%
    19:00 +7°C° 0.1 mm 3 m/s 632 mmHg 89%
    20:00 +7°C° 0.1 mm 3 m/s 633 mmHg 90%
    21:00 +7°C° 0.1 mm 3 m/s 633 mmHg 91%
    22:00 +7°C° 0.1 mm 3 m/s 633 mmHg 91%
    23:00 +7°C° 0.1 mm 3 m/s 633 mmHg 92%

    Depois de amanhã, 26 Maio, Domingo

    Tempo Temperatura Precipitação Vento Pressão Humidade
    00:00 +7°C° 0.1 mm 3 m/s 633 mmHg 92%
    01:00 +5°C° 0 mm 3 m/s 633 mmHg 92%
    02:00 +5°C° 0 mm 3 m/s 633 mmHg 91%
    03:00 +5°C° 0 mm 3 m/s 632 mmHg 91%
    04:00 +5°C° 0 mm 3 m/s 633 mmHg 90%
    05:00 +7°C° 0 mm 3 m/s 633 mmHg 88%
    06:00 +7°C° 0 mm 3 m/s 633 mmHg 87%
    07:00 +8°C° 0 mm 3 m/s 633 mmHg 82%
    08:00 +9°C° 0 mm 3 m/s 634 mmHg 77%
    09:00 +11°C° 0 mm 3 m/s 634 mmHg 72%
    10:00 +11°C° 0 mm 3 m/s 635 mmHg 70%
    11:00 +12°C° 0 mm 3 m/s 635 mmHg 68%
    12:00 +12°C° 0 mm 3 m/s 635 mmHg 66%
    13:00 +13°C° 0 mm 3 m/s 634 mmHg 62%
    14:00 +13°C° 0 mm 3 m/s 634 mmHg 59%
    15:00 +14°C° 0 mm 3 m/s 634 mmHg 56%
    16:00 +13°C° 0 mm 3 m/s 634 mmHg 62%
    17:00 +12°C° 0 mm 3 m/s 633 mmHg 67%
    18:00 +11°C° 0 mm 3 m/s 633 mmHg 73%
    19:00 +10°C° 0 mm 3 m/s 633 mmHg 79%
    20:00 +9°C° 0 mm 2 m/s 633 mmHg 84%
    21:00 +8°C° 0 mm 2 m/s 633 mmHg 90%
    22:00 +7°C° 0 mm 2 m/s 633 mmHg 91%
    23:00 +7°C° 0 mm 2 m/s 632 mmHg 92%

    27 Maio, Segunda-feira

    Tempo Temperatura Precipitação Vento Pressão Humidade
    00:00 +6°C° 0 mm 2 m/s 632 mmHg 93%
    01:00 +6°C° 0 mm 2 m/s 632 mmHg 93%
    02:00 +6°C° 0 mm 2 m/s 631 mmHg 93%
    03:00 +5°C° 0 mm 2 m/s 631 mmHg 93%
    04:00 +6°C° 0 mm 2 m/s 631 mmHg 90%
    05:00 +6°C° 0 mm 2 m/s 631 mmHg 86%
    06:00 +7°C° 0 mm 2 m/s 631 mmHg 82%
    07:00 +9°C° 0 mm 2 m/s 632 mmHg 74%
    08:00 +12°C° 0 mm 2 m/s 633 mmHg 65%
    09:00 +14°C° 0 mm 2 m/s 634 mmHg 56%
    10:00 +16°C° 0 mm 2 m/s 634 mmHg 53%
    11:00 +17°C° 0 mm 2 m/s 634 mmHg 51%
    12:00 +18°C° 0 mm 2 m/s 634 mmHg 48%
    13:00 +17°C° 0 mm 2 m/s 633 mmHg 55%
    14:00 +16°C° 0 mm 2 m/s 633 mmHg 61%
    15:00 +14°C° 0 mm 2 m/s 632 mmHg 67%
    16:00 +13°C° 0.1 mm 2 m/s 632 mmHg 73%
    17:00 +12°C° 0.1 mm 2 m/s 631 mmHg 80%
    18:00 +10°C° 0.1 mm 2 m/s 631 mmHg 86%
    19:00 +9°C° 0.1 mm 2 m/s 631 mmHg 88%
    20:00 +9°C° 0.1 mm 2 m/s 631 mmHg 91%
    21:00 +8°C° 0.1 mm 2 m/s 631 mmHg 93%
    22:00 +7°C° 0.1 mm 2 m/s 631 mmHg 93%
    23:00 +7°C° 0.1 mm 2 m/s 630 mmHg 93%

    28 Maio, Terça-feira

    Tempo Temperatura Precipitação Vento Pressão Humidade
    00:00 +6°C° 0.1 mm 2 m/s 630 mmHg 93%
    01:00 +6°C° 0.1 mm 2 m/s 630 mmHg 93%
    02:00 +6°C° 0.1 mm 2 m/s 629 mmHg 93%
    03:00 +5°C° 0.1 mm 2 m/s 629 mmHg 93%
    04:00 +5°C° 0.2 mm 2 m/s 629 mmHg 92%
    05:00 +5°C° 0.2 mm 2 m/s 629 mmHg 92%
    06:00 +5°C° 0.2 mm 2 m/s 628 mmHg 91%
    07:00 +5°C° 0.2 mm 2 m/s 628 mmHg 89%
    08:00 +5°C° 0.2 mm 2 m/s 628 mmHg 87%
    09:00 +5°C° 0.2 mm 2 m/s 628 mmHg 85%
    10:00 +6°C° 0.3 mm 2 m/s 629 mmHg 81%
    11:00 +7°C° 0.3 mm 2 m/s 629 mmHg 76%
    12:00 +8°C° 0.3 mm 2 m/s 629 mmHg 72%
    13:00 +7°C° 0.8 mm 3 m/s 629 mmHg 78%
    14:00 +5°C° 0.8 mm 3 m/s 628 mmHg 84%
    15:00 +4°C° 0.8 mm 3 m/s 628 mmHg 91%
    16:00 +3°C° 0.9 mm 3 m/s 628 mmHg 90%
    17:00 +3°C° 0.9 mm 3 m/s 628 mmHg 89%
    18:00 +2°C° 0.9 mm 3 m/s 628 mmHg 89%
    19:00 +1°C° 0.1 mm 3 m/s 628 mmHg 89%
    20:00 +1°C° 0.1 mm 2 m/s 628 mmHg 89%
    21:00 -1°C° 0.1 mm 2 m/s 628 mmHg 90%
    22:00 -1°C° 0.1 mm 2 m/s 628 mmHg 91%
    23:00 +1°C° 0.1 mm 2 m/s 629 mmHg 92%

    29 Maio, Quarta-feira

    Tempo Temperatura Precipitação Vento Pressão Humidade
    00:00 0°C° 0.1 mm 3 m/s 629 mmHg 93%
    01:00 0°C° 0.1 mm 3 m/s 629 mmHg 92%
    02:00 +2°C° 0.1 mm 2 m/s 629 mmHg 92%
    03:00 +2°C° 0.1 mm 2 m/s 630 mmHg 91%
    04:00 +1°C° 0.1 mm 3 m/s 630 mmHg 90%
    05:00 +2°C° 0.1 mm 3 m/s 630 mmHg 89%
    06:00 +2°C° 0.1 mm 3 m/s 631 mmHg 88%
    07:00 +3°C° 0.1 mm 3 m/s 631 mmHg 84%
    08:00 +4°C° 0.1 mm 4 m/s 632 mmHg 80%
    09:00 +5°C° 0.1 mm 4 m/s 632 mmHg 76%
    10:00 +5°C° 0.1 mm 4 m/s 633 mmHg 75%
    11:00 +5°C° 0.1 mm 4 m/s 633 mmHg 74%
    12:00 +5°C° 0.1 mm 4 m/s 633 mmHg 73%
    13:00 +6°C° 0 mm 4 m/s 633 mmHg 70%
    14:00 +6°C° 0 mm 4 m/s 633 mmHg 68%
    15:00 +7°C° 0 mm 4 m/s 633 mmHg 65%
    16:00 +7°C° 0 mm 3 m/s 633 mmHg 68%
    17:00 +7°C° 0 mm 3 m/s 633 mmHg 71%
    18:00 +5°C° 0 mm 3 m/s 633 mmHg 74%
    19:00 +3°C° 0 mm 3 m/s 633 mmHg 79%
    20:00 +3°C° 0 mm 2 m/s 633 mmHg 84%
    21:00 +1°C° 0 mm 2 m/s 634 mmHg 89%
    22:00 +1°C° 0 mm 2 m/s 633 mmHg 89%
    23:00 -1°C° 0 mm 2 m/s 633 mmHg 89%
    Mostrar mais